Temp
7 7 7 8 9 8 9 11 11 11 11 11 11 12 11 11 11 11 11 11 11 11 11 11 11 11 11 11 11 11 11 11 11 11 11 11 11 11 11 11 12 12 12 12 11 11 12 12 11
7 7 7 8 8 8 9 10 10 10 11 11 11 11 10 11 11 11 11 11 11 11 11 11 11 11 11 11 11 11 11 11 11 11 11 11 11 11 11 11 11 11 11 11 11 11 11 11 11
6 6 7 7 7 8 9 9 9 9 10 10 10 11 10 10 11 11 11 11 11 10 10 11 11 11 10 10 10 10 10 10 10 10 11 11 11 11 11 11 11 11 11 11 11 11 11 11 11
6 6 6 6 8 9 8 9 9 9 10 10 10 9 10 10 10 10 10 10 11 10 10 11 11 10 10 10 10 10 10 10 10 10 10 10 10 11 11 11 10 10 10 10 10 10 10 10 10
5 6 6 6 7 9 8 9 9 9 10 10 10 9 9 10 10 10 10 10 10 10 10 10 10 10 10 10 10 10 10 10 10 10 9 9 10 10 10 10 10 10 10 10 10 10 9 9 9
5 5 5 6 7 8 8 8 9 9 9 9 9 9 9 10 10 10 10 10 10 10 10 10 10 10 10 10 10 10 10 9 10 10 10 9 9 9 9 10 9 9 9 9 9 8 8 8 8
5 5 5 6 7 8 7 8 8 8 8 8 8 8 9 9 9 9 10 10 10 10 10 10 10 10 10 10 9 9 9 9 9 9 9 9 9 8 8 8 8 8 8 8 7 7 7 7 7
4 4 5 5 6 8 8 7 8 8 8 8 8 8 8 8 8 9 9 9 10 10 10 10 10 10 10 9 9 9 9 9 9 9 9 8 8 8 7 7 7 7 6 6 6 6 6 6 6
4 3 4 5 6 8 8 7 8 8 8 8 8 8 8 8 8 9 9 9 9 10 10 10 10 10 9 9 9 9 9 9 9 9 9 8 8 7 7 7 6 6 6 6 6 5 5 5 6
3 4 5 5 6 6 7 7 7 7 7 7 8 8 7 8 7 9 9 9 9 9 10 10 10 9 9 9 9 9 9 8 8 8 8 8 8 7 7 7 7 6 6 6 5 5 5 5 5
4 4 5 6 5 6 6 6 7 7 7 7 7 7 7 7 6 7 8 9 9 9 10 10 10 9 9 9 9 9 8 8 8 8 8 8 8 8 7 6 6 6 6 5 5 5 5 6 6
3 4 3 5 5 5 6 6 6 7 7 7 7 7 7 7 7 7 8 8 9 10 9 9 9 9 9 9 9 9 8 8 8 8 7 7 8 7 7 6 7 7 7 6 6 6 6 6 6
2 3 3 4 5 5 5 5 5 6 7 6 7 7 8 8 7 7 8 8 9 9 9 9 9 9 9 9 9 9 8 8 8 7 7 7 7 7 6 7 6 6 7 7 7 6 6 6 6
1 2 3 3 3 4 5 5 5 6 6 6 6 8 7 6 7 8 8 9 9 9 9 9 9 9 9 9 8 8 8 8 8 7 7 7 7 6 6 6 5 6 6 6 6 6 6 6 6
1 1 2 3 3 3 4 4 5 5 6 6 7 7 6 6 7 7 8 8 9 9 9 9 9 9 9 8 8 8 8 8 8 7 7 7 6 6 6 6 6 6 6 6 6 6 5 5 5
1 1 2 3 3 4 4 4 5 6 5 6 6 7 6 7 7 8 8 8 8 9 9 9 9 9 9 8 8 8 8 8 8 7 7 6 6 6 6 6 6 6 6 5 5 5 5 5 5
0 -0 1 2 3 3 4 4 5 5 5 6 6 7 6 7 7 7 8 8 8 9 9 9 9 9 8 8 8 8 8 8 7 7 6 6 6 6 6 6 5 5 5 5 5 5 5 5 6
-1 -0 -0 1 3 3 4 4 5 5 6 6 6 6 6 6 7 7 7 8 8 9 9 8 8 8 8 8 8 8 8 7 7 6 6 6 6 5 5 5 4 4 4 4 5 5 5 5 6
-1 0 1 1 2 3 4 4 5 5 6 6 6 6 6 6 7 7 7 8 8 8 8 8 8 8 8 8 7 7 7 7 6 6 6 5 5 5 4 4 4 4 4 5 5 5 5 5 6
-2 -1 0 1 2 2 3 4 5 5 6 6 6 6 6 6 7 7 7 7 7 7 7 7 7 7 7 7 7 7 6 6 6 5 5 4 4 4 4 4 4 4 5 5 5 5 5 5 5
-2 -2 -1 -0 2 2 2 3 4 5 5 6 6 6 6 6 6 7 7 7 7 7 7 7 7 7 7 7 6 6 6 6 5 4 4 3 3 4 4 4 4 4 4 4 5 5 5 5 4
-3 -1 -1 -1 -0 1 2 3 5 5 5 6 6 6 6 6 6 7 7 7 7 7 7 7 7 6 6 6 6 6 5 5 4 4 3 3 3 4 4 4 4 4 4 4 4 4 4 4 3
-2 -2 -2 -1 -1 -1 1 2 4 5 5 6 6 6 6 6 6 7 7 7 7 6 6 6 6 6 6 6 6 5 5 4 4 3 3 3 3 3 4 4 4 4 4 4 3 3 3 2 2
-3 -3 -2 -1 -1 -0 0 0 4 5 6 7 6 6 6 6 6 6 6 6 6 6 6 6 5 5 5 5 5 4 4 4 3 3 3 3 4 4 4 4 4 4 3 3 3 2 2 1 0
-3 -3 -2 -2 -1 0 2 1 3 7 8 8 7 6 6 6 7 7 6 6 6 6 6 5 5 5 5 5 4 4 4 3 3 3 3 3 3 3 3 3 3 3 2 2 2 1 0 -0 -0
-3 -3 -2 -2 0 2 2 0 4 7 8 8 8 8 7 7 7 6 6 6 5 5 5 5 5 4 4 4 4 4 3 3 3 2 2 2 2 2 2 2 2 1 1 1 1 0 -0 -1 -1
-2 -3 -1 -1 2 2 1 1 6 7 8 7 7 7 7 7 7 6 5 5 5 5 5 5 4 4 4 4 3 3 3 3 2 2 2 2 1 1 1 1 1 1 1 0 0 -0 -1 -1 -2
-2 -1 -2 -2 0 2 2 3 5 7 8 8 7 7 7 6 6 5 5 5 5 5 4 4 4 4 4 3 3 3 3 2 2 1 1 1 1 0 0 0 0 -0 -1 -1 -1 -1 -2 -3 -3
-3 -2 -1 -1 -1 1 1 5 7 8 8 8 7 7 7 7 6 6 5 5 5 4 4 4 4 4 3 3 3 3 2 2 2 1 1 0 0 -0 -0 -0 -1 -1 -1 -1 -2 -3 -3 -3 -4
-2 -1 -1 -0 -0 -0 5 5 8 7 7 7 7 7 6 6 6 5 5 5 5 4 4 4 4 3 3 3 2 2 2 2 1 1 0 -0 -0 -0 -1 -1 -1 -2 -2 -3 -3 -3 -4 -4 -5
Height
3154 3154 3153 3153 3156 3151 3150 3152 3154 3152 3153 3153 3154 3157 3157 3156 3157 3160 3158 3158 3159 3159 3159 3158 3157 3155 3154 3152 3150 3148 3146 3144 3143 3142 3140 3139 3138 3138 3138 3139 3139 3139 3139 3139 3139 3139 3139 3139 3140
3152 3152 3153 3152 3152 3150 3150 3149 3148 3150 3150 3152 3154 3155 3155 3155 3156 3157 3157 3158 3158 3158 3158 3158 3157 3155 3154 3152 3150 3149 3147 3146 3144 3142 3141 3139 3138 3138 3138 3138 3138 3138 3138 3137 3137 3137 3138 3138 3137
3150 3151 3152 3150 3149 3148 3148 3149 3149 3149 3149 3151 3153 3154 3154 3154 3155 3156 3156 3157 3158 3157 3157 3157 3156 3155 3154 3152 3151 3149 3147 3146 3145 3143 3141 3139 3138 3137 3138 3138 3138 3137 3137 3136 3136 3136 3136 3137 3136
3147 3149 3150 3147 3146 3146 3146 3148 3148 3148 3149 3150 3152 3152 3152 3152 3153 3154 3154 3155 3157 3156 3157 3156 3155 3154 3153 3152 3150 3149 3148 3146 3144 3143 3141 3140 3138 3137 3136 3137 3137 3136 3136 3136 3136 3135 3135 3134 3133
3143 3145 3145 3143 3143 3143 3144 3147 3145 3146 3148 3149 3150 3150 3150 3151 3152 3152 3152 3154 3155 3154 3155 3154 3154 3153 3152 3151 3149 3149 3147 3146 3143 3143 3141 3139 3138 3136 3135 3135 3134 3134 3133 3133 3133 3133 3132 3131 3130
3139 3141 3140 3140 3140 3140 3142 3144 3144 3144 3145 3147 3147 3147 3148 3149 3149 3151 3150 3151 3153 3153 3153 3153 3153 3152 3151 3150 3149 3148 3147 3145 3143 3141 3139 3138 3136 3135 3133 3132 3132 3132 3131 3130 3129 3129 3128 3127 3127
3135 3136 3134 3136 3137 3136 3140 3142 3142 3142 3143 3143 3144 3145 3146 3146 3147 3148 3148 3148 3151 3151 3151 3152 3151 3150 3150 3149 3147 3147 3146 3144 3142 3140 3138 3135 3134 3133 3132 3131 3130 3130 3129 3128 3127 3126 3125 3124 3124
3131 3131 3129 3130 3133 3133 3136 3139 3139 3140 3141 3141 3141 3142 3143 3144 3145 3146 3146 3146 3147 3149 3149 3150 3149 3149 3148 3147 3146 3145 3144 3143 3140 3138 3136 3134 3132 3131 3130 3129 3128 3127 3126 3125 3124 3123 3123 3121 3120
3125 3123 3118 3123 3129 3131 3134 3136 3137 3136 3136 3137 3139 3140 3141 3142 3143 3143 3144 3144 3145 3145 3147 3148 3147 3147 3146 3145 3144 3143 3142 3141 3140 3138 3136 3134 3132 3130 3129 3128 3127 3126 3125 3123 3122 3121 3120 3118 3117
3116 3113 3113 3120 3126 3128 3131 3132 3134 3133 3132 3132 3134 3137 3136 3138 3137 3139 3141 3142 3142 3142 3143 3145 3145 3145 3144 3144 3142 3141 3139 3139 3138 3136 3134 3133 3130 3130 3128 3127 3125 3123 3122 3121 3120 3118 3117 3116 3114
3107 3103 3112 3116 3121 3125 3126 3127 3129 3127 3127 3129 3131 3132 3134 3135 3133 3134 3135 3137 3139 3140 3140 3140 3140 3140 3141 3140 3140 3138 3137 3136 3135 3134 3132 3131 3129 3126 3125 3123 3122 3121 3120 3119 3117 3116 3115 3113 3111
3100 3103 3108 3112 3116 3118 3118 3121 3121 3123 3123 3124 3125 3127 3127 3129 3130 3130 3133 3132 3134 3136 3137 3137 3137 3137 3135 3135 3135 3136 3136 3134 3133 3132 3130 3128 3127 3125 3123 3122 3120 3119 3117 3115 3113 3112 3110 3108 3105
3094 3098 3101 3104 3107 3110 3114 3113 3114 3114 3118 3120 3121 3123 3123 3125 3125 3126 3127 3128 3129 3130 3133 3134 3134 3134 3132 3133 3132 3131 3130 3130 3128 3127 3125 3124 3123 3121 3120 3118 3117 3116 3114 3112 3110 3108 3106 3104 3102
3089 3092 3092 3095 3098 3102 3106 3107 3109 3108 3112 3113 3116 3117 3117 3117 3118 3120 3121 3123 3124 3125 3128 3130 3131 3130 3129 3129 3129 3127 3127 3126 3125 3123 3122 3121 3120 3117 3115 3114 3113 3111 3110 3108 3105 3103 3101 3099 3096
3082 3083 3083 3083 3091 3093 3103 3098 3097 3103 3106 3107 3109 3110 3111 3111 3113 3114 3116 3117 3119 3121 3123 3125 3126 3126 3126 3125 3124 3124 3123 3122 3120 3120 3119 3118 3116 3114 3112 3111 3109 3107 3105 3103 3100 3098 3095 3093 3090
3077 3079 3074 3082 3086 3089 3099 3083 3094 3100 3101 3101 3103 3104 3105 3108 3108 3108 3109 3111 3113 3116 3117 3119 3120 3121 3121 3121 3120 3120 3119 3118 3117 3117 3115 3114 3112 3111 3109 3107 3105 3103 3101 3098 3095 3093 3090 3087 3084
3073 3071 3074 3076 3081 3087 3089 3082 3089 3094 3096 3097 3097 3098 3101 3102 3103 3103 3104 3104 3106 3109 3112 3114 3114 3115 3115 3116 3115 3116 3115 3115 3114 3113 3111 3110 3109 3107 3105 3103 3100 3098 3096 3093 3090 3087 3083 3079 3076
3071 3072 3073 3071 3076 3082 3081 3077 3083 3087 3090 3091 3092 3095 3095 3095 3098 3099 3098 3098 3100 3103 3105 3107 3109 3109 3111 3112 3112 3111 3111 3111 3110 3109 3108 3106 3105 3103 3101 3099 3097 3094 3091 3088 3085 3081 3077 3072 3069
3067 3067 3066 3067 3072 3074 3072 3073 3075 3081 3083 3085 3086 3089 3089 3090 3093 3093 3093 3093 3095 3097 3100 3102 3104 3106 3108 3108 3108 3108 3108 3107 3106 3105 3105 3103 3100 3099 3097 3095 3092 3089 3086 3082 3079 3075 3072 3067 3063
3061 3061 3056 3061 3066 3070 3069 3066 3070 3074 3075 3079 3081 3083 3083 3085 3087 3088 3088 3090 3091 3093 3096 3099 3101 3103 3104 3104 3104 3104 3104 3104 3103 3102 3101 3099 3097 3095 3093 3090 3087 3083 3079 3076 3072 3068 3065 3061 3054
3053 3053 3056 3059 3063 3063 3065 3059 3060 3063 3068 3072 3075 3077 3077 3080 3083 3084 3085 3086 3088 3091 3093 3095 3098 3099 3100 3102 3101 3101 3101 3101 3100 3099 3097 3095 3093 3091 3088 3084 3080 3077 3073 3069 3066 3061 3057 3055 3049
3046 3051 3055 3057 3064 3058 3060 3050 3047 3052 3057 3062 3066 3069 3071 3074 3077 3079 3081 3083 3085 3087 3090 3092 3094 3096 3097 3098 3098 3098 3098 3097 3097 3096 3094 3092 3088 3085 3082 3078 3075 3071 3068 3064 3060 3055 3050 3046 3043
3039 3050 3052 3055 3056 3057 3052 3051 3038 3047 3050 3053 3056 3060 3064 3067 3071 3074 3077 3079 3082 3085 3087 3089 3091 3092 3093 3094 3095 3095 3095 3094 3093 3092 3090 3087 3083 3080 3077 3073 3070 3066 3062 3058 3053 3049 3043 3038 3033
3041 3045 3048 3050 3053 3049 3044 3049 3034 3037 3038 3040 3049 3053 3056 3061 3064 3068 3072 3074 3078 3081 3084 3086 3088 3090 3091 3092 3092 3092 3091 3090 3089 3087 3084 3081 3078 3074 3070 3067 3063 3059 3055 3051 3046 3042 3036 3031 3026
3037 3043 3045 3046 3045 3029 3036 3042 3031 3031 3033 3035 3038 3044 3048 3054 3058 3062 3066 3069 3074 3078 3081 3083 3085 3087 3088 3088 3088 3088 3087 3086 3084 3081 3078 3075 3072 3068 3065 3061 3057 3053 3048 3044 3039 3034 3029 3024 3019
3025 3035 3036 3035 3022 3024 3032 3029 3022 3025 3026 3031 3035 3039 3043 3048 3052 3057 3060 3065 3070 3074 3077 3080 3082 3083 3084 3085 3085 3084 3083 3082 3079 3076 3073 3069 3066 3063 3059 3055 3050 3045 3041 3035 3031 3026 3020 3015 3010
3019 3020 3024 3027 3021 3022 3022 3024 3021 3021 3021 3025 3030 3034 3038 3042 3046 3050 3054 3060 3065 3070 3074 3076 3078 3080 3081 3081 3081 3080 3079 3077 3074 3071 3068 3064 3060 3056 3052 3048 3043 3038 3033 3027 3022 3016 3011 3005 2999
3012 3018 3027 3024 3020 3012 3011 3016 3013 3015 3016 3020 3024 3029 3034 3037 3040 3044 3049 3055 3061 3066 3070 3072 3074 3076 3077 3077 3077 3076 3074 3072 3069 3066 3062 3059 3055 3050 3045 3040 3035 3030 3024 3018 3012 3006 3000 2994 2989
3000 3004 3012 3017 3012 3007 3011 3006 3007 3008 3012 3017 3021 3026 3030 3034 3036 3039 3045 3052 3057 3062 3066 3068 3070 3072 3073 3073 3072 3070 3069 3066 3063 3060 3056 3052 3047 3042 3037 3032 3027 3021 3014 3008 3002 2996 2990 2984 2978
2994 2997 3003 3006 3009 3009 2998 3001 3002 3009 3013 3016 3019 3023 3028 3031 3034 3038 3043 3049 3053 3058 3062 3065 3066 3067 3068 3068 3067 3065 3063 3060 3057 3053 3049 3045 3040 3034 3029 3023 3017 3011 3006 3000 2994 2987 2980 2973 2966
Wind_Speed
10 10 9 7 2 3 6 11 1 5 6 10 6 10 3 1 4 4 1 3 5 6 9 11 13 14 15 16 16 16 15 13 11 9 7 6 6 6 7 8 8 8 8 8 8 9 10 10 12
11 11 10 8 3 5 6 8 6 8 8 9 9 8 2 1 3 5 4 1 1 5 7 9 11 13 15 16 17 17 17 16 15 12 10 9 8 7 7 8 8 9 9 10 9 10 11 12 13
12 12 11 5 6 7 4 3 2 5 8 13 10 6 3 6 8 6 6 3 3 4 7 8 11 13 15 17 17 17 17 17 16 15 13 11 9 9 9 9 10 10 10 12 13 12 13 14 14
14 11 11 12 13 6 9 9 12 6 8 11 12 4 5 6 8 7 8 6 5 5 5 7 9 12 14 16 18 19 19 17 17 16 15 14 13 12 12 11 12 13 13 13 14 14 15 16 16
15 15 15 14 14 11 6 15 12 14 11 13 13 7 7 6 6 10 10 9 8 7 8 8 10 11 13 14 17 20 20 19 18 17 16 16 14 13 12 10 11 14 14 15 15 15 15 15 16
19 16 16 19 19 11 11 16 16 18 13 10 10 8 9 9 10 10 11 12 9 7 8 8 10 12 13 13 15 19 20 19 18 17 17 15 15 14 13 12 11 12 13 13 13 13 13 13 13
23 21 23 21 20 18 8 12 15 16 12 11 11 10 10 6 9 11 12 13 9 9 9 9 11 13 13 13 15 18 19 19 19 19 17 16 15 14 13 12 11 10 10 10 11 12 13 13 13
25 25 28 27 23 22 11 11 15 18 18 16 12 6 3 9 10 11 12 12 11 10 9 10 11 13 12 13 15 18 18 18 19 19 17 15 14 13 12 12 11 10 10 9 9 9 10 11 12
27 31 36 33 29 25 11 12 16 18 22 18 21 14 9 12 12 14 14 14 13 13 12 10 12 12 12 13 15 17 17 17 17 16 15 14 13 12 12 10 10 9 9 9 10 11 12 14 15
33 40 41 34 27 27 19 14 17 23 25 21 16 16 9 10 17 21 19 16 15 14 14 12 10 11 11 12 16 17 16 16 15 14 13 12 11 10 10 10 10 11 12 14 15 16 17 19 20
38 45 38 34 29 22 22 23 21 21 26 23 14 16 12 12 12 15 18 21 18 16 15 13 13 13 13 13 16 15 14 17 16 15 13 14 11 11 13 14 14 15 16 18 19 20 20 21 21
37 39 39 36 29 29 29 23 28 29 33 25 21 20 25 23 21 23 19 20 20 19 16 14 14 15 16 17 17 17 16 17 16 15 13 13 14 14 15 16 18 20 20 21 23 23 24 25 26
36 35 32 33 34 32 29 27 25 35 36 35 28 21 25 28 31 31 27 26 22 20 19 16 16 18 18 17 19 19 20 20 20 17 16 16 16 15 17 19 20 23 24 25 26 27 28 28 28
26 32 37 34 32 29 34 34 26 31 30 29 22 21 21 19 25 29 29 28 25 23 22 22 20 20 22 20 19 19 20 22 20 19 18 17 17 17 19 20 21 23 25 26 27 29 30 32 33
32 33 35 39 37 37 29 35 37 33 29 26 17 21 19 24 27 29 29 27 27 23 23 21 22 23 23 21 21 21 21 23 21 20 19 19 18 20 21 23 24 26 28 28 30 31 32 34 36
30 34 41 36 37 39 30 47 34 26 25 16 15 20 20 22 23 23 25 26 27 25 24 23 25 25 24 21 21 22 22 23 20 18 18 20 21 22 22 24 26 29 30 32 33 34 35 36 38
28 30 30 38 36 34 37 46 37 29 25 17 14 19 21 23 19 18 21 23 25 25 25 25 25 24 22 21 21 22 20 17 17 18 19 21 21 22 23 25 27 29 31 33 35 36 39 40 38
26 25 33 28 36 35 36 39 39 36 25 25 21 20 23 24 21 18 16 19 22 23 25 23 22 20 19 18 20 18 17 16 17 18 20 21 21 23 24 25 27 30 33 35 37 38 38 36 35
33 28 22 32 28 27 42 39 35 31 24 22 25 24 26 24 21 19 17 18 19 20 19 17 17 16 17 17 15 15 15 15 17 18 19 20 21 22 24 27 29 32 35 36 34 31 31 33 33
37 36 43 30 25 25 33 45 38 33 31 29 25 25 25 24 23 19 17 16 16 16 15 15 15 15 13 13 13 14 15 15 15 17 18 18 19 22 25 28 31 32 32 29 31 31 30 31 35
34 37 37 39 27 26 31 37 45 40 35 34 34 29 31 27 21 21 18 16 16 16 15 14 15 14 13 13 13 12 13 13 14 16 16 17 20 24 27 29 30 28 30 30 31 31 31 30 31
35 34 32 30 26 27 19 13 39 44 40 40 33 32 34 32 29 24 20 19 19 18 16 15 15 13 13 11 10 10 10 11 13 14 16 19 23 25 27 27 27 28 30 30 30 31 32 32 31
38 31 27 26 29 34 36 17 36 31 43 38 37 36 38 32 30 24 24 23 21 20 18 16 15 13 11 9 6 5 8 11 14 16 19 21 23 24 25 26 27 29 30 30 30 31 32 34 35
30 25 23 20 26 20 34 23 20 38 39 35 44 37 39 35 34 28 27 26 24 23 21 19 16 13 10 7 4 6 10 13 15 18 21 22 23 25 27 29 31 32 33 33 33 33 34 35 36
29 25 6 10 8 11 18 25 31 21 32 29 41 46 42 38 35 33 31 30 28 25 22 20 16 13 9 5 6 9 12 15 18 21 23 25 27 29 31 33 34 35 36 36 35 35 36 37 38
30 35 12 7 7 8 17 9 28 22 32 25 21 30 40 35 32 29 32 32 29 26 24 20 16 13 9 8 9 12 16 18 21 23 26 29 31 33 34 36 37 38 39 38 37 37 38 40 40
31 33 48 10 16 5 9 11 26 19 22 26 25 26 24 23 26 29 34 34 31 28 25 21 17 14 12 11 13 16 19 22 24 27 29 32 34 36 38 39 40 40 40 39 39 40 41 42 44
39 33 30 18 5 7 8 26 20 33 29 27 27 26 24 21 23 28 34 35 31 28 25 22 18 16 14 14 16 20 22 25 28 30 33 35 37 39 40 41 42 42 41 40 41 42 43 45 46
37 26 28 21 25 2 5 8 22 32 26 24 20 17 19 16 21 27 34 33 31 29 26 23 19 17 16 17 19 23 25 28 31 33 36 38 40 41 42 43 43 43 42 42 43 44 46 48 48
31 28 34 22 15 25 7 2 19 24 18 14 13 13 17 17 21 26 31 31 30 28 26 23 20 19 19 20 23 26 28 31 33 36 39 41 42 43 44 45 45 44 43 43 44 47 48 49 50
Wind_Direction
274 290 301 317 232 220 212 196 174 200 206 210 201 231 287 247 283 320 342 40 31 6 4 4 6 10 9 9 9 7 5 359 359 358 348 330 306 282 259 256 262 264 263 262 263 266 270 278 286
267 278 290 296 263 245 218 265 184 190 217 216 219 215 113 344 231 277 270 214 345 355 354 4 3 10 13 12 11 8 7 4 357 352 346 337 326 305 283 273 269 267 270 274 274 278 282 287 292
259 271 281 266 243 239 274 314 164 169 206 223 214 189 234 224 236 245 244 243 289 335 344 353 359 9 10 15 12 9 4 0 358 355 350 338 329 315 304 296 289 282 279 281 282 287 292 294 294
255 252 260 253 245 212 288 297 272 241 213 228 217 212 209 231 239 250 251 257 273 293 323 342 353 2 5 11 9 7 2 357 354 351 351 344 341 328 316 310 300 291 289 290 293 296 298 300 302
246 245 245 245 243 218 272 276 279 255 246 243 221 223 219 202 240 250 258 250 263 279 307 334 347 354 354 2 5 2 360 354 353 349 345 344 341 334 332 329 306 302 303 302 303 304 306 307 308
234 235 237 240 244 214 269 264 268 275 269 226 259 267 238 227 248 256 271 256 257 269 294 323 336 342 344 351 356 355 355 352 352 347 344 339 339 338 334 333 329 326 321 320 320 320 322 322 320
238 229 234 241 244 236 241 257 265 267 237 235 237 252 248 241 249 271 264 264 257 273 288 311 322 330 335 341 347 348 350 352 353 350 345 342 342 343 341 340 340 335 334 336 333 328 326 323 318
236 237 237 234 233 225 213 278 265 270 264 234 235 225 225 233 246 256 256 258 260 270 278 294 310 318 326 333 338 340 344 352 353 349 351 354 352 350 350 346 346 345 343 338 333 329 325 321 315
228 227 236 232 227 226 214 275 275 271 273 245 229 233 255 248 256 249 256 262 263 266 268 278 299 309 315 326 327 335 340 348 350 349 354 359 360 2 359 358 356 349 341 335 328 322 317 313 311
222 230 236 239 237 239 235 275 274 263 255 257 234 217 259 273 277 247 246 251 257 262 270 277 283 294 304 314 320 329 333 339 344 345 346 349 355 350 347 339 336 333 326 319 314 312 312 309 308
225 234 239 243 236 234 237 254 256 245 251 252 246 210 205 219 242 258 255 253 252 252 264 276 290 295 301 313 318 323 324 326 335 336 334 334 333 335 334 329 322 313 309 309 307 308 306 309 313
232 233 238 243 240 229 230 252 253 251 253 252 241 229 215 220 237 251 253 257 249 254 258 269 283 293 305 313 313 312 310 317 319 320 323 330 326 326 321 314 311 312 311 310 312 318 322 322 322
233 235 235 241 239 224 229 241 251 246 246 258 259 251 248 232 235 249 253 258 256 253 255 263 277 290 295 300 302 304 309 313 314 318 320 319 314 316 313 311 316 313 315 318 320 321 322 319 317
232 236 237 233 235 234 234 244 250 248 251 254 258 248 244 245 248 250 249 252 252 255 260 266 276 283 290 290 292 292 301 305 306 305 308 308 313 307 305 311 310 313 315 316 316 317 317 315 313
225 232 234 233 228 232 237 249 244 249 256 267 259 246 242 250 256 257 259 259 253 252 259 264 268 274 279 280 285 287 294 295 295 295 301 307 302 304 309 309 313 313 312 313 313 313 313 311 312
230 233 238 232 229 230 228 248 248 254 254 241 256 233 253 264 259 258 256 252 250 250 255 258 262 269 271 270 275 280 288 289 291 295 297 295 300 305 309 309 312 310 312 312 311 311 311 311 311
233 243 245 248 230 229 224 245 243 249 250 241 251 234 245 256 256 263 254 249 243 245 248 252 258 261 262 264 273 283 286 282 283 285 287 293 299 303 307 308 307 309 310 309 311 311 312 311 310
234 250 247 250 241 231 230 239 244 243 255 230 226 230 245 255 256 265 256 246 239 234 237 241 244 247 256 266 274 276 275 275 276 281 287 294 301 303 303 304 307 310 309 309 309 310 310 310 310
231 234 250 250 249 245 234 239 236 244 237 234 225 238 247 250 255 258 254 244 236 231 229 225 230 244 259 265 263 263 267 272 278 285 291 295 298 302 306 308 308 307 306 307 309 311 312 309 308
235 240 238 249 238 246 246 243 240 236 227 227 212 227 245 247 254 249 248 237 226 215 213 221 237 249 244 242 248 257 270 279 284 288 289 294 302 305 306 306 306 306 308 311 312 311 311 312 313
238 240 248 251 249 247 253 254 241 235 235 233 233 228 245 250 258 240 240 230 220 213 215 222 229 229 230 236 250 263 272 278 282 285 292 300 304 305 306 308 309 311 312 313 312 312 312 313 315
241 233 248 263 258 262 248 266 244 229 234 233 231 218 232 241 248 235 232 223 216 217 218 225 227 228 233 241 251 263 273 282 286 289 297 301 304 307 310 311 310 311 312 312 312 312 313 314 315
243 239 247 256 257 259 258 264 247 238 229 224 213 215 232 235 243 236 226 221 219 217 218 220 224 230 237 240 246 276 297 295 291 293 297 303 307 310 311 312 312 312 314 315 313 313 314 315 318
239 244 249 255 253 259 248 246 253 233 232 228 219 218 225 227 238 234 224 219 219 216 216 219 223 225 223 221 256 313 318 310 304 304 306 309 312 317 320 320 319 318 318 316 313 313 314 315 315
235 236 238 229 223 242 250 230 231 227 224 220 205 213 224 228 236 237 225 217 216 215 218 221 223 222 220 252 302 326 328 317 312 313 316 319 321 323 322 321 320 319 318 316 314 314 314 313 313
220 221 211 210 211 237 237 231 222 239 202 203 206 214 222 227 229 229 221 214 213 215 218 222 223 224 241 274 303 317 322 319 317 318 320 321 322 322 322 322 322 320 318 316 314 313 313 313 313
224 207 216 280 268 196 193 219 202 217 184 188 192 206 213 225 232 225 215 209 209 215 219 224 227 235 255 281 303 313 315 318 318 317 318 320 320 320 321 322 321 319 317 315 314 314 313 313 313
230 220 202 212 253 189 200 188 191 190 190 192 197 205 221 229 224 217 209 206 208 214 220 227 233 245 262 285 302 308 311 315 314 315 316 317 317 319 320 320 318 317 317 316 315 314 313 313 313
212 214 201 214 239 267 170 206 196 190 197 201 201 212 207 213 210 207 201 204 210 216 223 231 240 253 269 286 298 305 307 311 311 312 313 314 316 317 317 317 318 318 317 315 313 313 314 315 314
224 206 190 200 207 234 164 32 185 185 190 191 181 189 201 208 204 201 201 207 214 220 227 235 246 260 273 286 296 302 304 307 308 309 311 312 313 314 316 317 317 317 315 314 315 315 316 315 316